EW5295 Weather Reports


time (UTC)temp
C
wind
direction
speed
KPH
gust
KPH
rain 1hr
cm
rain 24hr
cm
rain mn
cm
humidity
%
barometer
mb
20260902161538 15 158 0.0 1.6 0.00 0.00 0.00 79 1005.6
20260902160035 15 167 0.0 0.0 0.00 0.00 0.00 82 1005.7
20260902154534 15 163 0.0 0.0 0.00 0.00 0.00 83 1005.8
20260902153027 15 163 0.0 3.2 0.00 0.00 0.00 82 1005.9
20260902151519 15 186 0.0 1.6 0.00 0.00 0.00 79 1006.2
20260902150020 -17 0.0 0.0 0.00 0.00 0.00 1006.2
20260902144512 -17 0.0 0.0 0.00 0.00 0.00 1006.3
20260902143008 -17 0.0 0.0 0.00 0.00 0.00 1006.4
20260902141504 -17 0.0 0.0 0.00 0.00 0.00 1006.6
20260902140107 -17 0.0 0.0 0.00 0.00 0.00 1006.7
20260902134558 -17 0.0 0.0 0.00 0.00 0.00 1006.9
20260902133101 -17 0.0 0.0 0.00 0.00 0.00 1007.1
20260902131529 -17 0.0 0.0 0.00 0.00 0.00 1007.2
20260902130028 -17 0.0 0.0 0.00 0.00 0.00 1007.6
20260902124508 -17 0.0 0.0 0.00 0.00 0.00 1007.8
20260902123007 -17 0.0 0.0 0.00 0.00 0.00 1007.9
20260902121609 -17 0.0 0.0 0.00 0.00 0.00 1008.1
20260902120056 -17 0.0 0.0 0.00 0.00 0.00 1008.3
20260902114553 -17 0.0 0.0 0.00 0.00 0.00 1008.5
20260902113054 -17 0.0 0.0 0.00 0.00 0.00 1008.7
20260902111544 13 176 0.0 0.0 0.00 0.00 0.00 84 1008.8
20260902110042 13 171 0.0 0.0 0.00 0.00 0.00 84 1008.9
20260902104535 13 186 0.0 1.6 0.00 0.00 0.00 84 1008.9
20260902103027 13 161 0.0 1.6 0.00 0.00 0.00 85 1009.1
20260902101535 13 288 0.0 1.6 0.00 0.00 0.00 85 1009.1
20260902100025 13 174 0.0 1.6 0.00 0.00 0.00 87 1009.1
20260902094523 13 162 0.0 0.0 0.00 0.00 0.00 87 1009.2
20260902093025 13 162 0.0 0.0 0.00 0.00 0.00 87 1009.3
20260902091519 13 162 0.0 0.0 0.00 0.00 0.00 88 1009.6
20260902090019 13 163 0.0 1.6 0.00 0.00 0.00 89 1009.8
20260902084506 13 162 0.0 1.6 0.00 0.00 0.00 89 1009.9
20260902083006 13 157 0.0 1.6 0.00 0.00 0.00 88 1009.9
20260902081503 13 164 0.0 1.6 0.00 0.00 0.00 88 1009.9
20260902080001 14 313 0.0 0.0 0.00 0.00 0.00 86 1009.9
20260902074614 14 314 0.0 4.8 0.00 0.00 0.00 85 1009.9
20260902073058 14 171 0.0 0.0 0.00 0.00 0.00 84 1010.1
20260902071556 15 154 0.0 0.0 0.00 0.00 0.00 83 1010.2
20260902070055 15 165 0.0 0.0 0.00 0.00 0.00 83 1010.4
20260902064546 15 160 0.0 1.6 0.00 0.00 0.00 82 1010.5
20260902063044 14 170 0.0 3.2 0.00 0.00 0.00 83 1010.5
20260902061547 14 174 0.0 0.0 0.00 0.00 0.00 83 1010.4
20260902060040 15 174 0.0 0.0 0.00 0.00 0.00 82 1010.4
20260902054541 15 136 0.0 0.0 0.00 0.00 0.00 83 1010.6
20260902053038 15 136 0.0 0.0 0.00 0.00 0.00 82 1010.7
20260902051536 15 136 0.0 0.0 0.00 0.00 0.00 82 1010.6
20260902050036 15 150 0.0 1.6 0.00 0.00 0.00 81 1010.7
20260902044528 15 159 0.0 0.0 0.00 0.00 0.00 81 1010.9
20260902043032 15 158 0.0 0.0 0.00 0.00 0.00 80 1010.8
20260902041521 15 158 0.0 0.0 0.00 0.00 0.00 79 1010.8
20260902040019 15 158 0.0 0.0 0.00 0.00 0.00 78 1010.8
20260902034516 16 158 0.0 0.0 0.00 0.00 0.00 77 1010.6
20260902033015 16 158 0.0 0.0 0.00 0.00 0.00 76 1010.6
20260902031522 16 158 0.0 1.6 0.00 0.00 0.00 75 1010.5
20260902030011 16 143 0.0 1.6 0.00 0.00 0.00 74 1010.4
20260902024558 16 160 0.0 0.0 0.00 0.00 0.00 74 1010.4
20260902023108 16 172 0.0 0.0 0.00 0.00 0.00 74 1010.4
20260902021555 17 149 0.0 0.0 0.00 0.00 0.00 73 1010.3
20260902020053 17 126 0.0 0.0 0.00 0.00 0.00 74 1010.2
20260902014551 17 126 0.0 1.6 0.00 0.00 0.00 76 1010.2
20260902013050 17 126 0.0 1.6 0.00 0.00 0.00 74 1010.1
20260902011610 17 157 0.0 0.0 0.00 0.00 0.00 72 1010.0
20260902010048 17 162 0.0 1.6 0.00 0.00 0.00 72 1010.1
20260902004538 18 141 0.0 1.6 0.00 0.00 0.00 71 1010.0
20260902003038 18 187 0.0 1.6 0.00 0.00 0.00 70 1009.9
20260902001537 18 128 0.0 3.2 0.00 0.00 0.00 68 1009.8
20260902000040 18 148 0.0 3.2 0.00 0.00 0.00 69 1009.8
20260901234534 18 158 0.0 3.2 0.00 0.00 0.00 69 1009.9
20260901233033 18 169 0.0 1.6 0.00 0.00 0.00 70 1010.0
20260901231539 18 150 0.0 4.8 0.00 0.00 0.00 71 1009.9
20260901230030 18 126 0.0 0.0 0.00 0.00 0.00 72 1010.1
20260901224524 18 165 0.0 1.6 0.00 0.00 0.00 72 1010.1
20260901223016 18 143 0.0 3.2 0.00 0.00 0.00 71 1010.2
20260901221547 18 143 0.0 3.2 0.00 0.00 0.00 72 1010.1
20260901220012 17 158 0.0 0.0 0.00 0.00 0.00 74 1010.1
20260901214510 17 160 0.0 1.6 0.00 0.00 0.00 74 1010.0
20260901213018 17 171 0.0 0.0 0.00 0.00 0.00 74 1010.1
20260901211512 17 172 0.0 0.0 0.00 0.00 0.00 75 1010.1
20260901210006 17 173 0.0 0.0 0.00 0.00 0.00 76 1010.1
20260901204601 17 173 0.0 0.0 0.00 0.00 0.00 76 1010.2
20260901203048 17 196 0.0 1.6 0.00 0.00 0.00 76 1010.3
20260901201535 17 149 0.0 0.0 0.00 0.00 0.00 76 1010.2
20260901200055 17 135 0.0 0.0 0.00 0.00 0.00 76 1010.3
20260901194546 17 192 0.0 0.0 0.00 0.00 0.00 79 1010.3
20260901193042 17 150 0.0 0.0 0.00 0.00 0.00 80 1010.5
20260901191602 16 151 0.0 0.0 0.00 0.00 0.00 82 1010.5
20260901190033 16 168 0.0 0.0 0.00 0.00 0.00 83 1010.7
20260901184534 16 169 0.0 0.0 0.00 0.00 0.00 85 1010.8
20260901183044 16 181 0.0 1.6 0.00 0.00 0.00 86 1010.9
20260901181523 16 161 0.0 0.0 0.00 0.00 0.00 87 1010.9
20260901180019 15 160 0.0 0.0 0.00 0.00 0.00 89 1010.9
20260901174519 15 161 0.0 0.0 0.00 0.00 0.00 90 1010.9
20260901173018 15 161 0.0 0.0 0.00 0.00 0.00 92 1010.9
20260901171518 14 162 0.0 0.0 0.00 0.00 0.00 93 1010.8
20260901170016 14 167 0.0 0.0 0.00 0.00 0.00 93 1010.7
20260901164516 14 167 0.0 0.0 0.00 0.00 0.00 94 1010.7
20260901163015 13 167 0.0 0.0 0.00 0.00 0.00 94 1010.8